Chadron, NE

7:40 PM MDT on October 22, 2017 (GMT -0600)
Chadron Municipal

Weather History for KCDR - April, 2014

Change the Weather History Date:

Monday, April 21, 2014

  Actual Average Record
Temperature  
Mean Temperature 51 °F 47 °F  
Max Temperature 69 °F 62 °F 92 °F (1980)
Min Temperature 32 °F 31 °F 13 °F (1927)
Degree Days  
Heating Degree Days 14 18  
Month to date heating degree days 417 456  
Since 1 July heating degree days 6789 6613  
Cooling Degree Days 0 0  
Month to date cooling degree days 0 0  
Year to date cooling degree days 0 0  
Moisture  
Dew Point 30 °F    
Average Humidity 56    
Maximum Humidity 89    
Minimum Humidity 22    
Precipitation  
Precipitation 0.00 in 0.07 in 1.93 in (1933)
Month to date precipitation 0.92 1.24  
Year to date precipitation 2.50 3.44  
Sea Level Pressure  
Sea Level Pressure 30.19 in    
Wind  
Wind Speed 6 mph (South)    
Max Wind Speed 16 mph    
Max Gust Speed 22 mph    
Visibility 10 miles    
Events      
T = Trace of Precipitation, MM = Missing Value Source: NWS Daily Summary

Daily Weather History Graph

Daily Weather History Graph

Search for Another Location

Airport or City:

Trip Planner

Search our weather history database for the weather conditions in past years. The results will help you decide how hot, cold, wet, or windy it might be!

Date:

Astronomy

Apr. 21, 2014 Rise Set
Actual Time 6:01 AM MDT 7:41 PM MDT
Civil Twilight 5:31 AM MDT 8:11 PM MDT
Nautical Twilight 4:54 AM MDT 8:48 PM MDT
Astronomical Twilight 4:16 AM MDT 9:27 PM MDT
Moon 1:15 AM MDT (4/21) 11:28 AM MDT (4/21)
Length of Visible Light 14h 40m
Length of Day
13h 40m
Waning Gibbous, 57% of the Moon is Illuminated
Apr 21
Waning Gibbous
Apr 22
Last Quarter
Apr 29
New
May 6
First Quarter
May 14
Full

Hourly Weather History & Observations

Time (MDT) Temp. Windchill Dew Point Humidity Pressure Visibility Wind Dir Wind Speed Gust Speed Precip Events Conditions
12:53 AM 39.9 °F 37.8 °F 32.0 °F 73% 30.17 in 10.0 mi West 3.5 mph - N/A   Clear
1:53 AM 39.9 °F 36.7 °F 32.0 °F 73% 30.18 in 10.0 mi NNW 4.6 mph - N/A   Clear
2:53 AM 37.9 °F - 30.0 °F 73% 30.19 in 10.0 mi Calm Calm - N/A   Clear
3:53 AM 35.1 °F - 28.9 °F 78% 30.22 in 10.0 mi Calm Calm - N/A   Clear
4:53 AM 34.0 °F 26.6 °F 30.0 °F 85% 30.23 in 10.0 mi WSW 9.2 mph - N/A   Clear
5:53 AM 33.1 °F 26.9 °F 28.9 °F 85% 30.25 in 10.0 mi WSW 6.9 mph - N/A   Clear
6:53 AM 34.0 °F 31.0 °F 28.9 °F 82% 30.28 in 10.0 mi SW 3.5 mph - N/A   Clear
7:53 AM 42.1 °F 38.4 °F 33.1 °F 70% 30.29 in 10.0 mi WSW 5.8 mph - N/A   Scattered Clouds
8:53 AM 51.1 °F - 36.0 °F 56% 30.27 in 10.0 mi West 5.8 mph - N/A   Clear
9:53 AM 55.9 °F - 30.0 °F 37% 30.27 in 10.0 mi Calm Calm - N/A   Mostly Cloudy
10:53 AM 57.9 °F - 26.1 °F 30% 30.27 in 10.0 mi Calm Calm - N/A   Mostly Cloudy
11:53 AM 62.1 °F - 23.0 °F 22% 30.25 in 10.0 mi Calm Calm - N/A   Mostly Cloudy
12:53 PM 64.9 °F - 25.0 °F 22% 30.24 in 10.0 mi North 4.6 mph - N/A   Overcast
1:53 PM 66.0 °F - 27.0 °F 23% 30.22 in 10.0 mi North 5.8 mph - N/A   Partly Cloudy
2:53 PM 66.0 °F - 27.0 °F 23% 30.19 in 10.0 mi ESE 5.8 mph - N/A   Partly Cloudy
3:53 PM 68.0 °F - 28.0 °F 22% 30.17 in 10.0 mi ENE 6.9 mph - N/A   Overcast
4:53 PM 68.0 °F - 30.0 °F 24% 30.15 in 10.0 mi ENE 11.5 mph - N/A   Mostly Cloudy
5:53 PM 68.0 °F - 30.9 °F 25% 30.13 in 10.0 mi SSE 10.4 mph - N/A   Clear
6:53 PM 63.0 °F - 37.0 °F 38% 30.13 in 10.0 mi SE 9.2 mph - N/A   Clear
7:53 PM 52.0 °F - 37.0 °F 57% 30.13 in 10.0 mi SE 8.1 mph - N/A   Clear
8:53 PM 50.0 °F - 34.0 °F 54% 30.12 in 10.0 mi SSE 12.7 mph - N/A   Clear
9:53 PM 53.1 °F - 30.9 °F 43% 30.10 in 10.0 mi SSE 13.8 mph - N/A   Clear
10:53 PM 48.9 °F - 30.9 °F 50% 30.09 in 10.0 mi SE 5.8 mph - N/A   Clear
11:53 PM 52.0 °F - 28.9 °F 41% 30.06 in 10.0 mi SSE 11.5 mph - N/A   Clear